Tracking 32136 objects as of 12-Nov-2025
HD Live streaming from Space Station
objects crossing your sky now

ONEWEB-0304

Track ONEWEB-0304 now!
10-day predictions
ONEWEB-0304 is classified as:


NORAD ID: 49092
Int'l Code: 2021-075T
Perigee: 1,199.6 km
Apogee: 1,202.0 km
Inclination: 87.9 °
Period: 109.3 minutes
Semi major axis: 7571 km
RCS: Unknown
Launch date: August 21, 2021
Source: United Kingdom (UK)
Launch site: TYURATAM MISSILE AND SPACE COMPLEX (TTMTR)
Your satellite tracking list
Your tracking list is empty




NASA's NSSDC Master Catalog

Two Line Element Set (TLE):
1 49092U 21075T   25315.30746743  .00000159  00000-0  37739-3 0  9996
2 49092  87.9139  49.1884 0001579  98.5788 261.5523 13.17651343204884
Source of the keplerian elements: AFSPC